TimeCDT,TemperatureF,Dew PointF,Humidity,Sea Level PressureIn,VisibilityMPH,Wind Direction,Wind SpeedMPH,Gust SpeedMPH,PrecipitationIn,Events,Conditions,WindDirDegrees,DateUTC
12:15 AM,39.0,29.3,68,30.19,10.0,SSE,8.1,-,N/A,,Mostly Cloudy,160,2013-03-29 05:15:00
12:35 AM,37.8,28.6,69,30.19,10.0,South,3.5,-,N/A,,Mostly Cloudy,170,2013-03-29 05:35:00
12:55 AM,38.3,29.1,70,30.19,10.0,SSE,4.6,-,N/A,,Scattered Clouds,150,2013-03-29 05:55:00
1:15 AM,38.1,29.1,70,30.19,10.0,SSE,4.6,-,N/A,,Clear,160,2013-03-29 06:15:00
1:55 AM,38.5,30.4,73,30.18,10.0,SSE,6.9,-,N/A,,Clear,150,2013-03-29 06:55:00
2:15 AM,36.5,30.2,78,30.18,10.0,SSE,6.9,-,N/A,,Scattered Clouds,160,2013-03-29 07:15:00
2:35 AM,37.6,31.5,79,30.18,10.0,SSE,6.9,-,N/A,,Scattered Clouds,160,2013-03-29 07:35:00
2:55 AM,34.0,30.4,87,30.17,10.0,Calm,Calm,-,N/A,,Clear,0,2013-03-29 07:55:00
3:35 AM,37.0,30.9,79,30.17,10.0,SSW,3.5,-,N/A,,Clear,200,2013-03-29 08:35:00
3:55 AM,35.6,30.6,82,30.17,10.0,SSW,4.6,-,N/A,,Clear,210,2013-03-29 08:55:00
4:15 AM,33.8,30.0,86,30.17,10.0,SSW,3.5,-,N/A,,Clear,200,2013-03-29 09:15:00
4:35 AM,35.1,30.7,84,30.17,10.0,SSW,3.5,-,N/A,,Clear,210,2013-03-29 09:35:00
4:55 AM,34.0,30.2,86,30.17,10.0,Calm,Calm,-,N/A,,Clear,0,2013-03-29 09:55:00
5:15 AM,31.8,28.9,89,30.17,10.0,Calm,Calm,-,N/A,,Clear,0,2013-03-29 10:15:00
5:35 AM,30.7,28.9,93,30.17,7.0,Calm,Calm,-,N/A,,Clear,0,2013-03-29 10:35:00
5:55 AM,29.8,28.4,94,30.17,7.0,Calm,Calm,-,N/A,,Clear,0,2013-03-29 10:55:00
6:15 AM,28.4,27.1,95,30.17,7.0,Calm,Calm,-,N/A,,Clear,0,2013-03-29 11:15:00
6:35 AM,29.3,28.0,95,30.17,7.0,Calm,Calm,-,N/A,,Clear,0,2013-03-29 11:35:00
6:55 AM,28.8,27.1,94,30.17,5.0,Calm,Calm,-,N/A,,Clear,0,2013-03-29 11:55:00
7:15 AM,26.6,25.7,96,30.17,4.0,Calm,Calm,-,N/A,,Clear,0,2013-03-29 12:15:00
7:35 AM,25.5,24.4,96,30.18,5.0,Calm,Calm,-,N/A,,Clear,0,2013-03-29 12:35:00
7:55 AM,28.0,27.1,96,30.19,5.0,Calm,Calm,-,N/A,,Clear,0,2013-03-29 12:55:00
8:15 AM,31.1,30.0,96,30.19,5.0,Calm,Calm,-,N/A,,Clear,0,2013-03-29 13:15:00
8:35 AM,34.5,32.2,91,30.20,7.0,Calm,Calm,-,N/A,,Clear,0,2013-03-29 13:35:00
8:55 AM,39.2,34.2,82,30.20,7.0,South,4.6,-,N/A,,Clear,190,2013-03-29 13:55:00
9:15 AM,42.1,35.1,76,30.20,7.0,South,5.8,-,N/A,,Clear,190,2013-03-29 14:15:00
9:35 AM,45.0,35.8,70,30.20,10.0,South,6.9,-,N/A,,Clear,180,2013-03-29 14:35:00
9:55 AM,47.8,36.5,65,30.20,10.0,South,8.1,-,N/A,,Clear,180,2013-03-29 14:55:00
10:15 AM,49.8,37.2,62,30.19,10.0,South,9.2,-,N/A,,Clear,190,2013-03-29 15:15:00
10:35 AM,53.1,37.8,56,30.19,10.0,South,12.7,-,N/A,,Clear,170,2013-03-29 15:35:00
10:55 AM,54.7,37.4,52,30.18,10.0,South,12.7,-,N/A,,Clear,170,2013-03-29 15:55:00
11:15 AM,56.3,37.2,49,30.18,10.0,South,15.0,18.4,N/A,,Clear,180,2013-03-29 16:15:00
11:55 AM,59.2,35.6,41,30.17,10.0,South,18.4,23.0,N/A,,Clear,190,2013-03-29 16:55:00
12:15 PM,59.9,35.4,40,30.17,10.0,South,17.3,-,N/A,,Clear,170,2013-03-29 17:15:00
12:35 PM,61.2,33.8,36,30.16,10.0,South,19.6,23.0,N/A,,Clear,170,2013-03-29 17:35:00
12:55 PM,61.5,33.1,34,30.15,10.0,South,18.4,23.0,N/A,,Clear,170,2013-03-29 17:55:00
1:15 PM,62.4,32.0,32,30.14,10.0,South,16.1,25.3,N/A,,Clear,170,2013-03-29 18:15:00
1:35 PM,63.7,32.0,31,30.13,10.0,SSE,16.1,-,N/A,,Clear,160,2013-03-29 18:35:00
1:55 PM,63.9,32.0,30,30.12,10.0,South,15.0,23.0,N/A,,Clear,170,2013-03-29 18:55:00
2:15 PM,65.1,32.0,29,30.12,10.0,SSE,16.1,23.0,N/A,,Clear,160,2013-03-29 19:15:00
2:35 PM,66.2,32.0,28,30.10,10.0,SSE,15.0,-,N/A,,Clear,160,2013-03-29 19:35:00
2:55 PM,65.8,32.0,28,30.10,10.0,South,15.0,20.7,N/A,,Clear,170,2013-03-29 19:55:00
3:15 PM,66.2,31.8,28,30.09,10.0,South,13.8,21.9,N/A,,Clear,190,2013-03-29 20:15:00
3:35 PM,67.3,32.2,27,30.08,10.0,South,17.3,23.0,N/A,,Clear,180,2013-03-29 20:35:00
3:55 PM,67.3,32.0,27,30.07,10.0,South,18.4,23.0,N/A,,Clear,170,2013-03-29 20:55:00
4:15 PM,67.5,31.3,26,30.06,10.0,South,17.3,24.2,N/A,,Clear,170,2013-03-29 21:15:00
4:35 PM,68.0,30.6,25,30.06,10.0,South,16.1,24.2,N/A,,Clear,170,2013-03-29 21:35:00
4:55 PM,68.2,30.4,24,30.05,10.0,South,16.1,20.7,N/A,,Clear,190,2013-03-29 21:55:00
5:15 PM,68.0,30.0,24,30.05,10.0,South,15.0,-,N/A,,Clear,180,2013-03-29 22:15:00
5:35 PM,68.0,30.2,24,30.05,10.0,South,16.1,-,N/A,,Clear,170,2013-03-29 22:35:00
5:55 PM,67.8,30.0,24,30.04,10.0,South,15.0,-,N/A,,Clear,190,2013-03-29 22:55:00
6:15 PM,67.1,30.6,26,30.04,10.0,South,13.8,-,N/A,,Clear,170,2013-03-29 23:15:00
6:35 PM,64.9,31.1,28,30.03,10.0,South,12.7,-,N/A,,Clear,170,2013-03-29 23:35:00
6:55 PM,64.4,31.1,29,30.03,10.0,South,10.4,-,N/A,,Clear,170,2013-03-29 23:55:00
7:15 PM,62.6,32.0,32,30.02,10.0,SSE,10.4,-,N/A,,Clear,160,2013-03-30 00:15:00
7:35 PM,60.8,32.4,34,30.01,10.0,SSE,10.4,-,N/A,,Clear,160,2013-03-30 00:35:00
7:55 PM,60.1,32.0,35,30.00,10.0,SSE,13.8,-,N/A,,Mostly Cloudy,150,2013-03-30 00:55:00
8:15 PM,59.7,31.8,35,30.00,10.0,SE,10.4,-,N/A,,Scattered Clouds,140,2013-03-30 01:15:00
8:35 PM,58.1,32.0,37,30.00,10.0,SE,9.2,-,N/A,,Scattered Clouds,130,2013-03-30 01:35:00
8:55 PM,56.5,32.0,39,30.01,10.0,SE,8.1,-,N/A,,Scattered Clouds,130,2013-03-30 01:55:00
9:15 PM,55.4,32.4,42,30.02,10.0,SSE,5.8,-,N/A,,Mostly Cloudy,160,2013-03-30 02:15:00
9:35 PM,55.8,32.2,41,30.04,10.0,SSW,9.2,-,N/A,,Overcast,200,2013-03-30 02:35:00
9:55 PM,58.1,34.0,40,30.06,10.0,SW,16.1,19.6,N/A,Rain,Light Rain,230,2013-03-30 02:55:00
10:15 PM,55.4,44.1,66,30.07,7.0,SW,19.6,28.8,N/A,Rain,Light Rain,220,2013-03-30 03:15:00
10:35 PM,53.2,45.3,74,30.08,7.0,SSW,12.7,-,0.02,Rain,Light Rain,210,2013-03-30 03:35:00
10:55 PM,51.1,46.9,86,30.06,10.0,SW,3.5,-,0.02,Rain,Rain,230,2013-03-30 03:55:00
11:15 PM,50.5,47.3,89,30.05,7.0,Calm,Calm,-,0.01,Rain,Rain,0,2013-03-30 04:15:00
11:35 PM,49.5,47.5,93,30.05,10.0,Calm,Calm,-,0.02,Rain,Rain,0,2013-03-30 04:35:00
11:55 PM,48.6,47.3,95,30.04,7.0,Calm,Calm,-,0.03,,Overcast,0,2013-03-30 04:55:00